Location: Coopersdale
(40.3556°N, 78.9372°W)
Time: 08:14:28
(UTC+00:00)

Tiros 1 - Pass Details

Date: 24 January 2021
Orbit: 630 x 664 km, 48.4° (Epoch: 05 March)

Event Time Altitude Azimuth Distance (km) Brightness Sun altitude
Rises 01:42:35 0° 282° (WNW) 2,921 11.5 -37.7°
Reaches altitude 10° 01:45:09 10° 293° (WNW) 2,010 10.3 -38.2°
Enters shadow 01:45:42 13° 297° (WNW) 1,829 10.1 -38.3°
